Date String (YYYY-MM-DD hh:mm:ss) UTC,Instrument flags,Ambient pressure (hPa),Sample flow (lpm),Bypass flow (lpm),Sample temperature (°C),Ambient temperature (°C),ASC tube jacket temperature (°C),LED temperature (°C),Box temperature (°C),Sample RH (%),Span deviation,Mass concentration (μg/m³),Mass concentration (μg/m³),Mass concentration (μg/m³)
DateTimeUTC,F1_M11,P_M11,Q1_M11,Q2_M11,T1_M11,T2_M11,T3_M11,T4_M11,T5_M11,U1_M11,ZSPAN_M11,X0_M11,X2_M11,X1_M11
2021-11-07 08:00:00,,0823.6,4.99,0.00,29.5,28.7,00.0,38.6,31.2,05.6,0000.0,0003.27,0001.23,0000.91
2021-11-07 08:01:00,,0823.7,4.99,0.00,29.5,28.7,00.0,38.6,31.2,05.6,0000.0,0003.29,0001.26,0000.91
2021-11-07 08:02:00,,0823.7,5.00,0.00,29.5,28.7,00.0,38.6,31.2,05.7,0000.0,0004.26,0001.28,0000.91
2021-11-07 08:03:00,,0823.7,5.01,0.00,29.5,28.7,00.0,38.6,31.2,05.3,0000.0,0004.33,0001.28,0000.91
2021-11-07 08:04:00,,0823.6,5.00,0.00,29.5,28.7,00.0,38.6,31.2,05.2,0000.0,0004.27,0001.27,0000.91
2021-11-07 08:05:00,,0823.7,5.01,0.00,29.5,28.7,00.0,38.6,31.2,05.1,0000.0,0004.28,0001.28,0000.92
2021-11-07 08:06:00,,0823.6,5.01,0.00,29.5,28.7,00.0,38.6,31.2,05.0,0000.0,0004.30,0001.32,0000.94
2021-11-07 08:07:00,,0823.6,5.00,0.00,29.5,28.7,00.0,38.6,31.2,05.0,0000.0,0003.35,0001.28,0000.95
2021-11-07 08:08:00,,0823.6,4.99,0.00,29.5,28.7,00.0,38.6,31.2,04.8,0000.0,0002.76,0001.23,0000.94
2021-11-07 08:09:00,,0823.6,5.01,0.00,29.5,28.7,00.0,38.6,31.2,04.8,0000.0,0002.65,0001.19,0000.93
2021-11-07 08:10:00,,0823.5,5.00,0.00,29.6,28.7,00.0,38.6,31.2,04.7,0000.0,0002.67,0001.19,0000.92
2021-11-07 08:11:00,,0823.4,5.00,0.00,29.6,28.7,00.0,38.6,31.2,04.7,0000.0,0002.57,0001.16,0000.92
2021-11-07 08:12:00,,0823.3,5.00,0.00,29.6,28.7,00.0,38.6,31.3,04.6,0000.0,0002.48,0001.11,0000.91
2021-11-07 08:13:00,,0823.4,5.00,0.00,29.6,28.8,00.0,38.6,31.3,04.6,0000.0,0001.63,0001.06,0000.90
2021-11-07 08:14:00,,0823.4,5.02,0.00,29.6,28.8,00.0,38.6,31.3,04.6,0000.0,0001.40,0001.04,0000.89
2021-11-07 08:15:00,,0823.4,4.99,0.00,29.6,28.8,00.0,38.6,31.3,04.5,0000.0,0002.04,0001.04,0000.88
2021-11-07 08:16:00,,0823.4,5.00,0.00,29.6,28.8,00.0,38.6,31.4,04.5,0000.0,0002.24,0001.01,0000.86
2021-11-07 08:17:00,,0823.4,4.98,0.00,29.6,28.8,00.0,38.6,31.4,04.5,0000.0,0002.15,0000.96,0000.83
2021-11-07 08:18:00,,0823.3,5.01,0.00,29.6,28.8,00.0,38.6,31.4,04.5,0000.0,0002.14,0000.94,0000.82
2021-11-07 08:19:00,,0823.3,5.00,0.00,29.6,28.8,00.0,38.6,31.4,04.6,0000.0,0002.20,0000.94,0000.81
2021-11-07 08:20:00,,0823.3,5.00,0.00,29.6,28.8,00.0,38.6,31.3,04.6,0000.0,0002.24,0000.95,0000.81
2021-11-07 08:21:00,,0823.4,4.99,0.00,29.6,28.8,00.0,38.6,31.3,04.6,0000.0,0002.22,0000.95,0000.80
2021-11-07 08:22:00,,0823.3,4.99,0.00,29.6,28.7,00.0,38.6,31.3,04.7,0000.0,0002.29,0000.96,0000.79
2021-11-07 08:23:00,,0823.4,5.00,0.00,29.6,28.7,00.0,38.6,31.3,04.7,0000.0,0002.32,0000.98,0000.80
2021-11-07 08:24:00,,0823.3,5.02,0.00,29.6,28.7,00.0,38.6,31.3,04.7,0000.0,0002.28,0000.97,0000.80
2021-11-07 08:25:00,,0823.4,5.00,0.00,29.5,28.7,00.0,38.6,31.3,04.8,0000.0,0002.42,0000.99,0000.81
2021-11-07 08:26:00,,0823.4,5.01,0.00,29.5,28.7,00.0,38.6,31.2,04.8,0000.0,0002.59,0001.01,0000.82
2021-11-07 08:27:00,,0823.5,4.98,0.00,29.5,28.6,00.0,38.6,31.2,04.8,0000.0,0002.40,0001.02,0000.83
2021-11-07 08:28:00,,0823.5,5.00,0.00,29.5,28.6,00.0,38.6,31.2,05.0,0000.0,0002.44,0001.05,0000.85
2021-11-07 08:29:00,,0823.4,5.00,0.00,29.5,28.6,00.0,38.6,31.1,04.9,0000.0,0002.53,0001.09,0000.85
2021-11-07 08:30:00,,0823.4,4.99,0.00,29.5,28.7,00.0,38.6,31.2,04.8,0000.0,0002.48,0001.09,0000.86
2021-11-07 08:31:00,,0823.3,4.99,0.00,29.5,28.6,00.0,38.6,31.2,04.8,0000.0,0002.46,0001.07,0000.86
2021-11-07 08:32:00,,0823.2,5.00,0.00,29.5,28.7,00.0,38.6,31.2,04.8,0000.0,0002.51,0001.07,0000.87
2021-11-07 08:33:00,,0823.2,5.00,0.00,29.6,28.7,00.0,38.6,31.3,04.8,0000.0,0002.52,0001.07,0000.87
2021-11-07 08:34:00,,0823.2,5.00,0.00,29.6,28.7,00.0,38.6,31.3,04.7,0000.0,0002.60,0001.10,0000.88
2021-11-07 08:35:00,,0823.2,5.00,0.00,29.6,28.7,00.0,38.6,31.3,04.7,0000.0,0002.91,0001.13,0000.88
2021-11-07 08:36:00,,0823.2,5.00,0.00,29.6,28.8,00.0,38.6,31.3,04.7,0000.0,0002.82,0001.12,0000.87
2021-11-07 08:37:00,,0823.2,5.01,0.00,29.6,28.8,00.0,38.6,31.3,04.8,0000.0,0002.01,0001.11,0000.87
2021-11-07 08:38:00,,0823.3,5.00,0.00,29.6,28.8,00.0,38.6,31.3,04.8,0000.0,0002.08,0001.14,0000.88
2021-11-07 08:39:00,,0823.4,5.00,0.00,29.6,28.7,00.0,38.6,31.3,04.8,0000.0,0002.11,0001.14,0000.87
2021-11-07 08:40:00,,0823.4,5.01,0.00,29.6,28.7,00.0,38.6,31.3,04.8,0000.0,0002.04,0001.12,0000.87
2021-11-07 08:41:00,,0823.4,5.00,0.00,29.5,28.7,00.0,38.6,31.2,04.9,0000.0,0002.07,0001.14,0000.88
2021-11-07 08:42:00,,0823.4,4.99,0.00,29.5,28.6,00.0,38.6,31.2,04.9,0000.0,0002.09,0001.14,0000.89
2021-11-07 08:43:00,,0823.4,5.00,0.00,29.5,28.6,00.0,38.6,31.2,04.9,0000.0,0002.23,0001.18,0000.88
2021-11-07 08:44:00,,0823.3,5.00,0.00,29.5,28.6,00.0,38.6,31.2,04.9,0000.0,0002.66,0001.19,0000.89
2021-11-07 08:45:00,,0823.2,5.00,0.00,29.5,28.6,00.0,38.6,31.2,04.9,0000.0,0002.81,0001.19,0000.90
2021-11-07 08:46:00,,0823.3,5.01,0.00,29.5,28.6,00.0,38.6,31.2,05.0,0000.0,0002.79,0001.17,0000.89
2021-11-07 08:47:00,,0823.2,5.00,0.00,29.5,28.7,00.0,38.6,31.2,05.0,0000.0,0002.90,0001.19,0000.90
2021-11-07 08:48:00,,0823.2,4.99,0.00,29.5,28.7,00.0,38.6,31.3,05.0,0000.0,0002.93,0001.20,0000.90
2021-11-07 08:49:00,,0823.1,5.00,0.00,29.5,28.7,00.0,38.6,31.3,05.0,0000.0,0003.06,0001.22,0000.90
2021-11-07 08:50:00,,0823.1,4.99,0.00,29.5,28.7,00.0,38.6,31.3,05.0,0000.0,0002.98,0001.19,0000.90
2021-11-07 08:51:00,,0823.2,5.00,0.00,29.5,28.7,00.0,38.6,31.3,05.0,0000.0,0003.10,0001.24,0000.91
2021-11-07 08:52:00,,0823.2,5.00,0.00,29.5,28.7,00.0,38.6,31.3,05.0,0000.0,0003.09,0001.23,0000.90
2021-11-07 08:53:00,,0823.2,5.01,0.00,29.5,28.7,00.0,38.6,31.3,05.0,0000.0,0003.08,0001.22,0000.89
2021-11-07 08:54:00,,0823.3,5.01,0.00,29.5,28.7,00.0,38.6,31.3,05.1,0000.0,0002.89,0001.19,0000.90
2021-11-07 08:55:00,,0823.2,4.98,0.00,29.5,28.7,00.0,38.6,31.2,05.2,0000.0,0002.99,0001.19,0000.90
2021-11-07 08:56:00,,0823.2,5.00,0.00,29.5,28.6,00.0,38.6,31.2,05.2,0000.0,0002.80,0001.18,0000.90
2021-11-07 08:57:00,,0823.2,4.99,0.00,29.5,28.6,00.0,38.5,31.2,05.3,0000.0,0002.64,0001.18,0000.90
2021-11-07 08:58:00,,0823.2,5.00,0.00,29.5,28.6,00.0,38.5,31.2,05.2,0000.0,0002.64,0001.15,0000.89
2021-11-07 08:59:00,,0823.2,5.00,0.00,29.5,28.6,00.0,38.5,31.2,05.3,0000.0,0003.33,0001.14,0000.89
